TimeCDT,TemperatureF,Dew PointF,Humidity,Sea Level PressureIn,VisibilityMPH,Wind Direction,Wind SpeedMPH,Gust SpeedMPH,PrecipitationIn,Events,Conditions,WindDirDegrees,DateUTC
12:02 AM,63.0,60.1,90,29.96,1.8,NNW,15.0,-,0.08,Rain-Thunderstorm,Heavy Thunderstorms and Rain,330,2014-06-07 05:02:00
12:12 AM,63.0,60.1,90,29.95,3.0,NNW,12.7,-,0.21,Rain-Thunderstorm,Thunderstorms and Rain,330,2014-06-07 05:12:00
12:33 AM,63.0,60.1,90,29.93,8.0,NNW,13.8,-,0.26,Rain-Thunderstorm,Light Rain,340,2014-06-07 05:33:00
12:44 AM,63.0,60.1,90,29.94,10.0,NNE,10.4,-,0.28,Rain,Light Rain,20,2014-06-07 05:44:00
12:53 AM,62.1,60.1,93,29.90,10.0,North,8.1,-,0.29,Rain,Light Rain,10,2014-06-07 05:53:00
1:53 AM,62.1,59.0,90,29.91,7.0,ENE,8.1,-,0.07,Rain,Rain,60,2014-06-07 06:53:00
2:53 AM,62.1,60.1,93,29.91,8.0,ENE,9.2,-,0.18,Rain,Light Rain,60,2014-06-07 07:53:00
3:06 AM,62.1,60.1,93,29.96,3.0,ENE,10.4,-,0.06,Rain,Heavy Rain,70,2014-06-07 08:06:00
3:32 AM,62.1,60.1,93,29.95,3.0,NE,12.7,-,0.16,Rain,Heavy Rain,50,2014-06-07 08:32:00
3:38 AM,62.1,59.0,90,29.95,2.0,NE,17.3,21.9,0.24,Rain,Heavy Rain,50,2014-06-07 08:38:00
3:51 AM,60.8,59.0,94,29.95,4.0,NE,18.4,-,0.36,Rain,Rain,40,2014-06-07 08:51:00
3:53 AM,61.0,59.0,93,29.91,5.0,NE,15.0,-,0.36,Rain,Rain,40,2014-06-07 08:53:00
4:53 AM,61.0,59.0,93,29.91,10.0,North,8.1,-,0.03,Rain,Light Rain,350,2014-06-07 09:53:00
5:13 AM,60.1,57.0,90,29.96,10.0,NNW,17.3,24.2,0.00,,Mostly Cloudy,340,2014-06-07 10:13:00
5:21 AM,59.0,55.9,90,29.97,10.0,NNW,13.8,-,0.00,,Overcast,340,2014-06-07 10:21:00
5:32 AM,59.0,55.9,90,29.97,10.0,NNW,12.7,-,0.00,,Overcast,340,2014-06-07 10:32:00
5:53 AM,59.0,55.9,90,29.94,10.0,NNW,12.7,-,0.00,,Overcast,330,2014-06-07 10:53:00
6:18 AM,57.0,53.1,87,29.99,10.0,NNW,19.6,-,N/A,,Overcast,340,2014-06-07 11:18:00
6:53 AM,55.4,51.8,88,30.00,10.0,NNW,19.6,-,N/A,,Mostly Cloudy,340,2014-06-07 11:53:00
7:53 AM,55.4,51.8,88,30.01,10.0,North,18.4,-,N/A,,Clear,350,2014-06-07 12:53:00
8:16 AM,55.9,51.1,84,30.02,10.0,North,20.7,-,N/A,,Mostly Cloudy,350,2014-06-07 13:16:00
8:53 AM,57.2,51.8,82,30.02,10.0,North,17.3,23.0,N/A,,Overcast,360,2014-06-07 13:53:00
9:53 AM,57.2,51.8,82,30.04,10.0,North,18.4,-,N/A,,Overcast,350,2014-06-07 14:53:00
10:53 AM,62.1,53.1,72,30.01,10.0,North,16.1,-,N/A,,Mostly Cloudy,10,2014-06-07 15:53:00
11:13 AM,63.0,53.1,70,30.04,10.0,North,16.1,-,N/A,,Mostly Cloudy,360,2014-06-07 16:13:00
11:53 AM,62.1,53.1,72,30.03,10.0,North,17.3,-,N/A,,Overcast,360,2014-06-07 16:53:00
12:53 PM,63.0,53.1,70,30.03,10.0,North,18.4,-,N/A,,Overcast,360,2014-06-07 17:53:00
1:53 PM,64.9,53.1,65,30.04,10.0,North,17.3,-,N/A,,Overcast,360,2014-06-07 18:53:00
2:53 PM,64.9,53.1,65,30.04,10.0,North,18.4,-,N/A,,Overcast,350,2014-06-07 19:53:00
3:53 PM,64.9,54.0,68,30.04,10.0,NNE,17.3,-,N/A,,Overcast,20,2014-06-07 20:53:00
4:53 PM,64.9,54.0,68,30.04,10.0,NNE,13.8,-,N/A,,Overcast,20,2014-06-07 21:53:00
5:41 PM,64.0,54.0,70,30.06,10.0,NNE,13.8,-,N/A,,Overcast,30,2014-06-07 22:41:00
5:53 PM,64.0,54.0,70,30.05,10.0,NNE,12.7,-,N/A,,Overcast,30,2014-06-07 22:53:00
6:53 PM,64.9,55.0,70,30.05,10.0,NNE,12.7,-,N/A,,Mostly Cloudy,30,2014-06-07 23:53:00
7:53 PM,64.9,54.0,68,30.04,10.0,NE,13.8,-,N/A,,Clear,40,2014-06-08 00:53:00
8:53 PM,62.1,55.0,78,30.06,10.0,NE,4.6,-,N/A,,Partly Cloudy,50,2014-06-08 01:53:00
9:53 PM,62.1,55.9,80,30.09,10.0,NNE,3.5,-,N/A,,Overcast,20,2014-06-08 02:53:00
10:53 PM,63.0,54.0,72,30.10,10.0,NNE,9.2,-,N/A,,Overcast,20,2014-06-08 03:53:00
11:53 PM,61.0,53.1,75,30.10,10.0,NNE,8.1,-,N/A,,Overcast,30,2014-06-08 04:53:00